Temperature
1 2 2 2 2 2 2 2 2 3 3 4 3 3 4 4 4 4 4 4 4 4 3 3 3 3 3 3 3 3 3 3 2 2 2 2 2 2 2 2 2 2 2 2
1 2 2 2 2 1 2 2 2 2 2 3 3 3 3 3 3 3 3 4 4 3 3 3 3 3 3 3 3 2 2 2 2 2 2 2 2 2 2 2 2 1 1 2
1 1 1 1 1 1 1 1 2 2 3 2 2 2 3 3 3 3 3 4 3 3 3 3 3 3 2 2 2 2 2 2 2 1 1 1 1 1 1 1 1 1 1 1
-0 1 1 3 2 1 1 1 1 1 2 2 2 3 4 4 4 4 4 3 3 3 3 3 3 2 2 2 2 2 2 1 1 1 1 1 1 1 1 1 1 1 1 1
-1 0 1 2 2 1 1 1 1 1 1 2 2 2 3 4 4 4 4 4 3 3 3 3 2 2 2 2 2 1 1 1 1 1 1 1 1 1 0 0 0 0 0 0
-1 0 1 3 2 1 1 1 1 1 1 1 1 1 2 4 4 4 3 3 3 3 2 2 2 2 1 1 1 1 1 1 1 0 0 0 0 -0 -0 -0 -0 -0 -0 -1
-1 -0 1 1 1 1 2 2 2 2 2 1 1 2 3 3 3 3 3 3 3 2 2 2 2 1 1 1 1 1 0 0 0 0 -0 -0 -0 -1 -1 -1 -1 -1 -1 -1
-2 -1 1 0 -0 0 1 2 2 2 2 2 3 3 3 3 3 3 3 2 2 2 2 1 1 1 1 1 0 0 -0 -0 -0 -0 -1 -1 -1 -1 -1 -1 -1 -1 -1 -2
-1 0 1 1 1 2 2 2 2 2 3 3 2 2 2 2 2 2 2 2 1 1 1 1 1 1 0 0 -0 -0 -0 -1 -1 -1 -1 -1 -1 -1 -2 -2 -2 -2 -2 -2
-2 -1 -0 1 2 2 2 2 2 2 2 2 2 2 2 2 2 2 1 1 1 1 1 0 0 0 -0 -0 -1 -1 -1 -1 -1 -1 -1 -2 -2 -2 -2 -2 -2 -3 -3 -3
-2 -2 -1 1 1 2 2 2 2 2 2 2 2 2 2 1 1 1 1 1 0 0 0 0 -0 -0 -1 -1 -1 -1 -1 -1 -1 -2 -2 -2 -2 -2 -3 -3 -3 -3 -3 -4
-1 -0 -1 1 2 2 1 1 1 1 1 1 1 1 1 1 1 1 1 0 0 -0 -0 -0 -1 -1 -1 -1 -1 -2 -2 -2 -2 -2 -2 -2 -3 -3 -3 -3 -3 -4 -4 -4
1 1 1 1 1 1 1 1 1 1 1 1 1 1 1 1 0 0 0 -0 -0 -1 -1 -1 -1 -1 -1 -2 -2 -2 -2 -2 -2 -2 -3 -3 -3 -3 -3 -4 -4 -4 -4 -5
1 1 0 1 1 1 0 0 0 0 0 0 0 0 0 0 0 -0 -0 -0 -1 -1 -1 -1 -2 -2 -2 -2 -2 -2 -2 -3 -3 -3 -3 -3 -4 -4 -4 -4 -4 -4 -5 -5
0 0 0 0 0 0 0 -0 -0 -0 -0 -0 -0 -0 -0 -0 -0 -0 -1 -1 -1 -2 -2 -2 -2 -2 -2 -2 -3 -3 -3 -3 -3 -3 -4 -4 -4 -4 -4 -4 -4 -5 -5 -5
-0 -0 -0 -0 -0 -0 -1 -1 -1 -1 -1 -1 -1 -1 -1 -1 -1 -1 -1 -1 -2 -2 -2 -2 -2 -2 -3 -3 -3 -3 -3 -3 -4 -4 -4 -4 -4 -4 -5 -5 -5 -5 -5 -5
-2 -2 -1 -1 -1 -1 -1 -1 -1 -1 -1 -1 -1 -1 -1 -1 -2 -2 -2 -2 -2 -2 -2 -3 -3 -3 -3 -3 -3 -4 -4 -4 -4 -4 -4 -4 -5 -5 -5 -5 -5 -5 -5 -6
-1 -1 -1 -1 -1 -1 -1 -1 -2 -2 -2 -2 -2 -2 -2 -2 -2 -2 -2 -2 -3 -3 -3 -3 -3 -3 -3 -4 -4 -4 -4 -4 -5 -5 -5 -5 -5 -5 -5 -6 -6 -6 -6 -6
-1 -1 -1 -1 -2 -2 -2 -2 -2 -2 -2 -3 -2 -2 -2 -2 -2 -3 -3 -3 -3 -3 -3 -3 -3 -4 -4 -4 -4 -4 -5 -5 -5 -5 -5 -5 -6 -6 -6 -6 -6 -6 -6 -6
-2 -2 -2 -2 -2 -2 -2 -2 -2 -3 -3 -3 -3 -3 -3 -3 -3 -3 -3 -3 -3 -3 -3 -4 -4 -4 -4 -4 -5 -5 -5 -5 -5 -5 -6 -6 -6 -6 -6 -6 -6 -6 -7 -7
-2 -2 -2 -2 -2 -2 -3 -3 -3 -3 -3 -3 -3 -3 -3 -3 -3 -4 -4 -4 -4 -4 -4 -4 -4 -4 -4 -5 -5 -5 -5 -5 -6 -6 -6 -6 -6 -6 -7 -7 -7 -7 -7 -7
-3 -3 -3 -3 -3 -3 -3 -3 -3 -3 -3 -3 -4 -4 -4 -4 -4 -4 -4 -4 -4 -4 -4 -4 -4 -5 -5 -5 -5 -5 -5 -6 -6 -6 -6 -6 -7 -7 -7 -7 -7 -7 -7 -7
-3 -3 -3 -3 -4 -4 -4 -4 -4 -4 -4 -4 -4 -4 -4 -4 -4 -4 -4 -4 -4 -5 -5 -5 -5 -5 -5 -5 -5 -6 -6 -6 -6 -6 -6 -7 -7 -7 -7 -7 -7 -7 -8 -8
-4 -4 -4 -4 -4 -4 -4 -4 -4 -4 -4 -4 -4 -4 -4 -4 -5 -5 -5 -5 -5 -5 -5 -5 -5 -5 -5 -6 -6 -6 -6 -6 -6 -7 -7 -7 -7 -7 -8 -8 -8 -8 -8 -8
-4 -4 -4 -4 -4 -5 -5 -5 -5 -5 -5 -5 -5 -5 -5 -5 -5 -5 -5 -5 -5 -5 -5 -5 -6 -6 -6 -6 -6 -6 -6 -7 -7 -7 -7 -7 -8 -8 -8 -8 -8 -8 -8 -8
-5 -5 -5 -5 -5 -5 -5 -5 -5 -5 -5 -5 -5 -5 -5 -5 -5 -5 -5 -5 -6 -6 -6 -6 -6 -6 -6 -6 -6 -7 -7 -7 -7 -7 -8 -8 -8 -8 -8 -8 -8 -8 -8 -8
-5 -5 -5 -5 -5 -5 -5 -5 -5 -5 -5 -5 -5 -6 -6 -6 -6 -6 -6 -6 -6 -6 -6 -6 -6 -6 -7 -7 -7 -7 -7 -7 -7 -8 -8 -8 -8 -8 -8 -8 -9 -9 -9 -9
Wind_Speed
7 6 4 6 7 8 9 10 10 10 11 12 9 9 7 5 4 4 4 5 5 5 4 4 4 4 3 3 3 3 3 3 3 2 2 2 2 1 1 1 1 1 1 0
6 6 7 9 10 11 12 11 12 11 14 11 7 5 5 6 6 6 6 6 6 5 4 5 5 5 4 3 3 3 3 3 3 3 2 2 2 2 1 1 1 1 0 1
5 4 3 9 12 14 10 10 10 14 14 6 4 6 7 7 7 8 7 7 7 6 6 6 5 5 5 5 3 4 4 3 3 3 3 3 2 2 2 2 1 1 1 1
2 0 8 9 4 8 10 11 11 9 8 6 7 7 6 7 8 8 7 7 7 6 6 5 4 4 4 4 4 4 4 3 4 4 3 3 2 2 2 2 2 2 2 2
3 5 9 8 4 5 7 9 9 11 9 6 4 3 5 6 6 8 7 6 6 6 5 4 5 4 4 4 4 4 4 4 4 4 4 3 3 3 2 2 2 2 2 2
4 4 7 7 3 3 3 6 6 8 8 6 2 3 6 4 4 5 4 4 4 3 3 4 4 4 4 5 5 5 5 4 4 4 4 4 4 3 2 2 2 2 2 2
6 6 8 6 2 3 4 7 3 5 7 6 7 7 5 3 3 3 3 3 2 3 4 4 4 5 5 5 6 5 4 4 3 4 4 4 3 2 2 2 2 2 2 2
4 5 8 3 3 5 7 4 3 4 6 7 7 5 4 4 3 3 2 2 2 2 3 3 4 5 5 5 5 4 3 3 3 3 3 3 3 3 2 3 2 2 2 3
8 8 4 4 5 5 3 4 4 3 4 5 5 5 5 4 4 3 3 3 2 3 3 2 3 5 6 5 4 4 4 4 4 3 3 3 3 3 3 3 3 2 2 3
6 8 7 7 6 5 4 5 5 5 4 4 5 5 5 4 4 4 4 3 3 3 3 3 3 3 5 4 4 4 5 4 4 4 3 3 3 3 3 3 3 3 3 3
7 8 6 7 7 7 6 5 5 4 4 5 5 6 6 5 5 5 4 3 3 4 4 4 3 3 3 4 5 5 4 4 3 3 3 3 3 3 4 4 4 4 4 4
9 7 6 7 6 6 6 7 6 5 5 5 5 6 5 5 5 5 4 4 4 4 4 4 3 3 3 3 5 5 4 4 3 3 3 3 3 3 4 5 6 7 6 5
9 7 7 8 6 5 7 7 6 6 6 6 5 5 5 5 5 4 4 4 5 5 4 4 3 3 3 3 4 5 5 4 3 4 4 3 3 3 3 3 4 5 6 7
7 5 7 7 8 7 6 6 5 5 5 5 5 4 4 4 4 5 5 5 4 4 4 4 3 4 3 3 4 4 4 5 4 4 4 4 4 4 3 3 3 3 4 6
8 8 8 6 6 6 5 4 4 5 5 5 4 5 5 5 6 6 5 4 3 3 4 3 3 4 3 3 4 4 4 3 3 3 3 3 3 3 3 3 3 3 2 3
6 6 7 7 8 7 5 5 6 7 5 5 5 5 5 5 5 4 4 4 4 4 4 4 4 4 3 4 4 3 3 5 4 3 3 3 3 3 3 3 3 3 3 3
5 6 6 7 8 8 7 7 7 7 6 6 6 4 3 3 2 3 3 3 4 4 4 4 4 3 3 4 4 3 3 4 5 3 3 3 3 3 3 3 3 4 4 4
8 9 8 8 7 8 8 7 6 6 6 6 4 3 4 4 5 4 3 2 2 2 3 3 3 3 3 3 3 3 3 3 3 3 3 3 3 3 3 3 4 4 3 3
7 7 7 7 7 7 7 7 6 6 5 4 4 5 4 4 4 3 3 3 3 3 3 3 3 2 3 3 3 2 3 3 3 2 2 3 3 3 3 3 4 4 3 3
5 5 5 6 5 5 5 5 5 4 4 4 4 3 3 3 3 3 3 3 4 3 3 3 3 2 3 3 3 2 3 3 3 2 2 2 3 3 3 3 3 3 3 3
5 5 5 4 4 4 4 4 4 4 3 3 4 4 4 3 3 3 3 2 2 2 3 4 2 2 2 3 3 2 3 3 3 3 3 3 3 3 3 3 3 3 3 3
4 4 4 3 3 3 3 2 2 2 2 2 2 3 3 2 2 2 2 2 2 2 1 2 2 3 3 3 2 2 2 2 2 2 2 2 3 3 3 3 3 3 3 3
4 3 3 2 2 2 1 0 1 2 2 2 3 3 3 2 2 2 1 1 1 2 1 1 2 3 3 2 2 2 2 2 2 2 2 2 3 3 3 3 3 3 3 3
3 2 2 2 0 0 0 1 1 1 1 1 1 2 2 2 1 1 1 2 2 2 1 2 2 3 3 2 2 2 2 2 1 1 2 2 2 3 3 3 3 3 3 4
2 2 1 0 0 0 0 1 2 2 2 1 1 1 1 1 2 1 1 2 2 2 2 2 2 3 2 2 1 1 1 1 1 1 1 1 2 2 2 3 3 3 3 4
2 1 1 1 1 1 1 1 1 1 1 2 1 1 2 2 2 2 2 2 3 3 3 2 2 2 2 2 1 1 1 0 0 0 1 1 2 2 2 3 4 3 3 4
1 1 1 1 1 0 0 1 1 1 1 2 2 1 2 2 3 3 3 3 3 3 2 2 3 2 2 2 2 1 1 1 1 0 0 1 1 2 2 3 3 3 3 3
Wind_Direction
256 260 233 233 235 220 217 216 221 245 250 259 252 247 249 244 236 227 224 220 216 214 213 206 199 195 191 193 187 170 157 167 187 186 169 153 146 145 132 119 121 145 159 198
275 262 251 262 247 230 234 233 237 255 264 257 257 255 247 238 229 230 231 228 222 216 212 209 203 200 196 196 192 172 173 190 188 174 166 166 166 151 139 139 130 121 184 222
265 284 301 264 236 222 224 221 213 235 249 258 250 243 240 232 225 230 234 228 220 217 213 211 207 200 197 199 187 174 180 194 191 181 180 184 175 158 166 173 168 189 228 226
232 225 245 250 233 210 221 240 228 235 249 242 238 248 251 232 221 231 231 226 225 219 217 213 202 197 189 180 178 179 182 191 193 186 190 191 182 186 194 194 194 204 224 234
192 234 269 280 242 191 203 255 232 229 244 249 252 295 283 243 224 225 226 227 224 217 213 203 201 192 176 179 180 183 191 197 197 190 190 193 197 205 207 197 210 217 222 226
198 212 242 258 257 193 146 268 247 215 227 233 210 262 268 256 231 230 231 228 219 206 192 196 200 178 172 187 190 202 206 205 200 194 192 198 204 209 213 203 212 216 233 233
222 238 258 263 256 131 184 250 263 214 216 206 213 230 251 251 240 230 233 234 208 192 198 205 193 174 185 197 208 211 199 192 193 193 195 199 202 204 199 203 199 215 239 249
192 223 253 233 136 189 230 266 263 236 220 217 232 248 251 244 236 223 220 218 203 198 221 219 192 179 194 215 218 196 180 186 194 194 199 197 187 197 196 191 199 221 237 261
202 221 256 203 214 236 238 251 262 257 246 223 235 247 249 245 239 230 223 222 208 197 216 232 210 193 204 223 205 181 178 192 200 198 202 198 193 197 197 193 202 221 229 254
249 261 260 254 261 266 249 250 263 261 256 230 235 245 247 246 244 238 232 225 210 194 207 233 231 214 213 214 194 180 188 196 197 197 205 205 204 204 204 202 209 225 237 249
250 266 282 267 247 251 262 267 273 273 255 238 234 249 247 248 245 239 236 228 210 207 216 231 231 234 228 202 181 184 191 199 202 204 206 213 216 216 218 220 214 216 226 234
240 243 234 261 261 250 251 258 258 258 265 259 237 243 248 249 240 233 232 224 219 219 222 228 225 231 226 197 180 180 191 203 206 206 209 211 216 243 245 237 243 243 245 246
244 254 244 262 271 260 252 257 256 248 247 254 255 242 241 245 238 226 225 219 219 222 223 222 221 232 228 194 179 185 196 204 206 205 207 210 213 220 243 263 260 258 257 261
247 251 261 262 263 264 259 260 259 259 254 247 249 246 237 238 235 226 226 223 218 216 217 211 212 229 226 193 184 193 200 208 208 208 208 211 215 220 222 230 254 272 273 274
244 236 245 260 267 269 265 263 264 263 259 256 244 237 230 230 233 235 228 211 198 201 210 205 212 232 219 191 192 198 201 205 205 207 207 210 212 215 220 228 239 256 278 288
258 253 250 254 260 265 264 257 253 257 254 249 246 242 236 231 233 229 216 195 189 209 216 212 224 227 205 191 195 204 212 212 206 203 203 205 206 211 219 225 234 244 253 260
243 252 248 255 257 260 256 253 248 250 250 244 241 239 225 207 214 224 224 213 207 216 216 215 225 219 203 197 198 203 204 210 208 208 208 207 208 213 218 222 232 241 249 256
240 245 243 242 248 258 263 259 250 246 244 241 230 215 205 205 217 224 221 203 188 222 232 221 211 206 205 203 198 194 195 204 201 202 205 209 213 215 218 225 234 243 253 264
260 260 257 254 249 245 251 255 251 245 239 223 211 216 219 216 215 214 199 186 199 227 241 224 209 193 199 208 196 188 191 196 202 203 205 218 225 222 220 226 236 241 246 251
277 276 271 269 263 250 252 255 248 242 227 204 200 201 213 220 207 196 188 208 226 229 217 213 193 188 201 206 193 179 182 190 195 201 208 215 223 227 227 232 237 243 246 249
283 286 283 278 276 269 256 249 232 229 221 197 193 199 206 214 197 183 183 223 247 207 199 200 189 192 195 190 183 174 180 187 194 205 215 222 227 231 235 238 244 251 253 255
283 283 283 282 277 283 281 252 213 203 194 189 186 179 180 194 190 186 202 216 219 212 186 185 188 191 182 173 169 177 186 193 199 204 213 221 227 233 239 244 247 251 255 256
286 282 283 278 263 273 318 342 180 172 174 181 183 183 186 190 185 180 218 220 197 188 160 179 188 178 165 152 160 173 180 188 198 207 216 222 228 232 239 244 246 249 253 255
296 301 302 303 301 108 8 347 47 114 137 153 174 179 170 159 164 195 193 187 175 146 128 170 158 147 133 116 142 157 169 182 199 212 219 227 234 237 241 245 250 252 252 255
300 297 302 334 62 259 226 101 90 94 96 95 89 100 128 152 157 150 138 147 141 111 101 135 131 121 103 109 130 146 161 181 190 193 216 236 242 246 250 249 250 253 255 257
303 290 279 257 235 221 188 139 125 125 119 105 82 86 91 97 104 101 97 98 101 95 87 83 86 91 86 96 94 90 93 102 357 268 241 251 249 250 254 255 257 257 259 263
325 336 357 6 357 355 142 144 146 157 155 139 123 109 101 95 95 91 88 87 85 82 79 72 68 73 80 80 75 67 64 59 45 9 318 288 277 269 267 267 269 271 274 273
Height
1483 1480 1481 1479 1479 1481 1482 1481 1481 1470 1468 1460 1459 1457 1456 1457 1457 1457 1458 1458 1458 1458 1459 1459 1459 1460 1460 1461 1462 1462 1463 1463 1464 1465 1466 1466 1466 1467 1467 1467 1468 1468 1468 1469
1482 1478 1478 1476 1474 1475 1474 1473 1472 1468 1462 1454 1454 1455 1454 1454 1454 1454 1454 1454 1455 1455 1456 1456 1456 1457 1458 1458 1459 1460 1460 1461 1462 1463 1463 1464 1464 1465 1465 1465 1465 1466 1466 1466
1481 1479 1476 1473 1465 1466 1466 1463 1462 1461 1454 1451 1452 1452 1451 1451 1451 1450 1450 1451 1451 1451 1452 1453 1453 1454 1455 1455 1456 1457 1457 1458 1459 1460 1460 1461 1462 1462 1462 1463 1463 1463 1463 1463
1482 1481 1479 1458 1454 1454 1456 1454 1454 1451 1449 1449 1448 1447 1447 1447 1447 1447 1447 1447 1448 1448 1449 1449 1450 1451 1452 1453 1453 1454 1454 1455 1456 1457 1458 1458 1459 1459 1459 1460 1460 1460 1460 1460
1481 1478 1466 1454 1451 1452 1454 1451 1446 1447 1445 1446 1445 1446 1444 1444 1444 1444 1444 1444 1444 1445 1445 1446 1447 1447 1448 1449 1449 1450 1451 1452 1453 1454 1454 1455 1455 1455 1456 1456 1457 1457 1457 1457
1477 1473 1465 1450 1447 1446 1449 1449 1440 1441 1442 1443 1444 1447 1443 1440 1441 1441 1441 1441 1441 1441 1442 1442 1443 1444 1444 1445 1445 1446 1447 1448 1450 1450 1451 1451 1452 1452 1452 1453 1453 1453 1453 1453
1471 1468 1457 1448 1445 1446 1452 1445 1438 1437 1437 1439 1440 1439 1438 1437 1438 1438 1438 1438 1438 1438 1438 1439 1439 1440 1440 1441 1442 1443 1444 1445 1446 1446 1447 1448 1448 1448 1449 1449 1449 1449 1450 1450
1469 1467 1456 1444 1445 1446 1441 1437 1436 1434 1434 1434 1434 1435 1435 1435 1434 1434 1434 1434 1434 1434 1435 1435 1436 1436 1437 1437 1438 1439 1440 1441 1442 1443 1443 1444 1444 1444 1445 1445 1445 1445 1445 1445
1456 1450 1441 1439 1438 1437 1436 1435 1434 1432 1432 1432 1432 1432 1431 1431 1431 1431 1431 1431 1431 1431 1431 1432 1432 1433 1433 1433 1435 1435 1436 1437 1438 1439 1439 1440 1440 1440 1441 1441 1441 1441 1441 1441
1450 1441 1437 1436 1435 1434 1433 1432 1431 1431 1430 1429 1429 1428 1428 1428 1428 1428 1428 1428 1428 1428 1427 1428 1428 1429 1429 1429 1430 1431 1432 1433 1434 1435 1435 1436 1436 1437 1437 1437 1437 1437 1437 1437
1444 1437 1434 1431 1431 1430 1430 1429 1428 1428 1427 1426 1426 1425 1425 1424 1424 1424 1424 1424 1424 1424 1424 1424 1424 1425 1425 1425 1426 1427 1428 1429 1430 1431 1431 1432 1432 1433 1433 1433 1434 1434 1433 1433
1435 1430 1431 1428 1427 1427 1426 1425 1424 1423 1423 1422 1422 1421 1421 1421 1420 1420 1420 1420 1420 1420 1420 1420 1420 1421 1421 1421 1422 1423 1423 1424 1425 1426 1427 1428 1428 1429 1429 1430 1430 1430 1429 1429
1426 1425 1425 1423 1423 1422 1421 1420 1420 1419 1419 1418 1418 1418 1417 1416 1416 1416 1416 1416 1416 1416 1416 1416 1416 1417 1417 1418 1418 1419 1419 1420 1421 1422 1423 1423 1424 1424 1424 1425 1425 1425 1425 1425
1422 1422 1420 1419 1418 1417 1416 1416 1415 1414 1414 1414 1413 1413 1412 1412 1412 1412 1411 1412 1412 1412 1412 1412 1413 1413 1414 1414 1415 1415 1416 1417 1417 1418 1419 1419 1420 1420 1420 1420 1420 1420 1421 1421
1417 1417 1416 1414 1413 1413 1412 1411 1410 1409 1409 1408 1408 1408 1408 1407 1407 1407 1407 1408 1408 1408 1408 1408 1409 1409 1410 1411 1411 1412 1412 1413 1414 1414 1415 1415 1416 1416 1416 1417 1416 1416 1416 1416
1411 1411 1410 1410 1408 1408 1407 1406 1405 1404 1404 1403 1403 1403 1403 1403 1403 1403 1403 1404 1404 1403 1404 1404 1405 1406 1406 1407 1407 1408 1408 1409 1410 1410 1411 1411 1412 1412 1412 1412 1412 1412 1412 1412
1407 1405 1405 1404 1403 1402 1402 1401 1400 1400 1399 1399 1399 1399 1399 1399 1399 1399 1399 1400 1400 1400 1401 1401 1402 1402 1403 1403 1404 1404 1405 1405 1406 1407 1407 1408 1408 1408 1409 1409 1409 1409 1409 1408
1401 1400 1399 1399 1398 1397 1396 1396 1395 1395 1394 1394 1394 1394 1394 1394 1394 1395 1395 1396 1396 1396 1397 1398 1398 1399 1400 1400 1401 1401 1401 1402 1402 1403 1403 1404 1404 1405 1405 1405 1405 1405 1405 1405
1396 1395 1394 1394 1393 1392 1391 1391 1390 1390 1390 1390 1390 1390 1390 1391 1391 1391 1392 1392 1392 1392 1393 1394 1395 1396 1396 1397 1397 1398 1398 1399 1399 1400 1400 1400 1401 1401 1401 1401 1401 1401 1401 1401
1391 1390 1389 1389 1388 1387 1386 1386 1386 1385 1385 1385 1386 1386 1386 1387 1387 1388 1388 1388 1389 1390 1390 1391 1392 1393 1393 1394 1394 1395 1395 1396 1396 1396 1397 1397 1397 1397 1398 1398 1398 1397 1397 1396
1387 1386 1385 1384 1383 1382 1382 1381 1381 1381 1381 1382 1382 1382 1383 1383 1384 1385 1385 1385 1386 1387 1388 1388 1389 1390 1390 1391 1392 1392 1392 1393 1393 1393 1394 1394 1394 1394 1394 1394 1394 1393 1393 1392
1384 1383 1381 1380 1379 1379 1378 1378 1378 1378 1378 1378 1379 1379 1380 1380 1381 1382 1382 1383 1384 1384 1385 1386 1387 1387 1388 1389 1389 1389 1390 1390 1390 1390 1391 1391 1390 1390 1390 1390 1390 1389 1389 1388
1381 1380 1379 1378 1377 1376 1375 1375 1375 1375 1375 1376 1376 1377 1377 1378 1379 1379 1380 1381 1381 1382 1383 1384 1385 1385 1386 1386 1387 1387 1387 1387 1387 1388 1388 1388 1387 1387 1387 1386 1386 1385 1385 1384
1379 1378 1377 1376 1375 1374 1373 1373 1373 1373 1374 1374 1375 1375 1376 1376 1377 1378 1378 1379 1380 1380 1381 1382 1383 1383 1384 1384 1384 1385 1385 1385 1385 1385 1385 1385 1384 1384 1383 1383 1382 1382 1381 1380
1378 1376 1375 1374 1373 1372 1372 1372 1372 1372 1373 1373 1374 1374 1375 1375 1376 1377 1377 1378 1379 1380 1380 1381 1382 1382 1382 1383 1383 1383 1383 1383 1383 1383 1382 1382 1381 1381 1380 1380 1379 1378 1377 1376
1376 1375 1374 1373 1372 1372 1371 1371 1371 1371 1372 1372 1373 1373 1374 1375 1376 1376 1377 1377 1378 1379 1380 1380 1381 1381 1381 1382 1382 1382 1382 1381 1381 1381 1380 1380 1379 1378 1378 1377 1376 1375 1374 1373
1375 1374 1373 1372 1372 1372 1371 1371 1371 1371 1371 1372 1372 1373 1374 1375 1376 1376 1377 1377 1378 1379 1379 1380 1380 1380 1381 1381 1381 1381 1380 1380 1380 1379 1378 1378 1377 1376 1375 1374 1373 1372 1371 1370